[[{"header":{"parameterUnit":"m.s-1","parameterCategory":1,"la1":30.2991,"la2":30.254,"lo1":-89.0895,"lo2":-89.0444,"dy":0.0017,"dx":0.0017,"nx":28,"ny":28,"refTime":"2024-07-17T03:00:00:Z","depth":0,"parameterNumber":2,"parameterNumberName":"U-component_of_WINDS"},"data":[0,0,0,0,0,0,0,0,0,0,0,0,0,0,0,0,0,0,0,0,0,0,0,0,0,0,0,0,0,0,0,0,0,0,0,0,0,0,0,0,0,0,0,0,0,0,0,0,0,0,0,0,0,0,0,0,0,0,0.8097,0.8098,0,0.8156,0.8157,0.8157,0.8175,0.8175,0.8175,0.8174,0.8233,0.8235,0.8237,0,0,0,0,0,0,0,0,0,0,0,0,0,0.7997,0.7999,0.8097,0.8098,0.8099,0.8156,0.8157,0.8158,0.8175,0.8175,0.8175,0.8174,0.8233,0.8235,0.8237,0,0,0,0,0,0,0,0,0,0,0,0,0,0.8047,0.8,0.8097,0.8114,0.8117,0.8156,0.8157,0.8158,0.8175,0.8175,0.8174,0.8174,0.8232,0.8234,0.8237,0.8263,0,0,0.8246,0.8247,0,0,0,0,0,0,0,0,0.8044,0.805,0.8111,0.8113,0.8116,0.8158,0.8143,0.8193,0.8175,0.8153,0.8174,0.8174,0.8208,0.8213,0.8225,0.8266,0.8268,0.8246,0.8248,0.8249,0.8249,0,0,0,0,0,0,0,0.8041,0.8048,0.812,0.8112,0.8115,0.8118,0.8125,0.8153,0.8182,0.8155,0.8156,0.8163,0.8209,0.8222,0.8226,0.8269,0.8246,0.8248,0.825,0.8251,0.8332,0.8332,0,0,0,0,0,0,0.8034,0.8045,0.8119,0.8122,0.8078,0.812,0.8128,0.8145,0.8182,0.8187,0.8163,0.8164,0.8218,0.8223,0.8229,0.826,0.8249,0.8251,0.8253,0.8331,0.8332,0.8333,0,0,0,0,0,0,0.8032,0.8041,0.8116,0.8084,0.8094,0.8123,0.8142,0.8146,0.8159,0.8189,0.8194,0.8171,0.8218,0.8225,0.8254,0.8262,0.8253,0.8255,0.8331,0.8332,0.8332,0.8324,0,0,0,0,0,0,0.8029,0.804,0.8051,0.8084,0.8096,0.8141,0.8142,0.8148,0.8164,0.8165,0.8197,0.8202,0.8218,0.825,0.8257,0.8266,0.8257,0.833,0.8331,0.8332,0.8324,0.8324,0.8325,0,0,0,0,0,0.8026,0.8046,0.8051,0.806,0.811,0.8142,0.8148,0.8166,0.8165,0.8175,0.8194,0.8201,0.826,0.8253,0.8261,0.8271,0.833,0.8331,0.8332,0.8323,0.8324,0.8325,0,0,0,0,0,0,0.8013,0.8051,0.8057,0.8089,0.8112,0.8145,0.8159,0.8167,0.8191,0.8191,0.8211,0.8219,0.8246,0.8261,0.8252,0.8297,0.8295,0.8298,0.8286,0.8287,0.8288,0.8283,0.8259,0,0,0,0,0,0.8014,0.8038,0.8069,0.8094,0.8106,0.813,0.8145,0.8157,0.8181,0.8191,0.8212,0.8235,0.8258,0.8274,0.8297,0.8326,0.8332,0.8337,0.8337,0.8338,0.834,0.8355,0.8357,0.8336,0.8336,0.8336,0,0,0.8016,0.804,0.8054,0.8092,0.8112,0.8134,0.8138,0.8163,0.818,0.8194,0.8223,0.8239,0.8266,0.8295,0.8308,0.8308,0.8347,0.8339,0.8339,0.8341,0.8356,0.8358,0.836,0.8337,0.8337,0.8337,0,0,0.8032,0.8053,0.8075,0.8094,0.8123,0.8139,0.8144,0.8176,0.8187,0.8216,0.8227,0.8247,0.8288,0.8306,0.832,0.8341,0.8348,0.8348,0.8352,0.8366,0.8367,0.8369,0.8375,0.8377,0.835,0.835,0.835,0,0.8031,0.8067,0.8086,0.8109,0.8125,0.814,0.8162,0.8179,0.8214,0.8224,0.8224,0.8274,0.8293,0.8326,0.8331,0.8342,0.8348,0.8345,0.8366,0.8367,0.8369,0.8375,0.8378,0.835,0.835,0.835,0.835,0,0.8063,0.8088,0.8102,0.8136,0.8154,0.8176,0.8198,0.8213,0.8223,0.8238,0.8267,0.829,0.8318,0.8326,0.8336,0.836,0.8359,0.8362,0.8361,0.837,0.8377,0.8379,0.8349,0.8349,0.8349,0.835,0,0,0.8074,0.8116,0.8121,0.8136,0.8168,0.8187,0.821,0.8237,0.8249,0.8272,0.8291,0.8324,0.8327,0.8343,0.8355,0.8368,0.8381,0.8369,0.837,0.837,0.8407,0.8404,0.8407,0.8386,0.8386,0.8387,0.8404,0,0.8093,0.8135,0.8152,0.8185,0.8207,0.822,0.824,0.8261,0.8275,0.8295,0.8311,0.8334,0.8336,0.8346,0.8359,0.8377,0.8389,0.8375,0.8402,0.8403,0.8395,0.841,0.8408,0.8424,0.8407,0.8407,0.8408,0,0.8121,0.8144,0.818,0.8208,0.8218,0.8236,0.8261,0.828,0.8304,0.8314,0.8331,0.8342,0.8365,0.8362,0.8393,0.8384,0.8396,0.8406,0.8407,0.841,0.8406,0.8413,0.8429,0.8431,0.8412,0.8412,0.8411,0,0.8124,0.8164,0.819,0.8203,0.8236,0.8248,0.8262,0.8286,0.8301,0.8323,0.8332,0.8356,0.837,0.8388,0.8404,0.8401,0.8433,0.8432,0.8441,0.8441,0.8448,0.8447,0.8465,0.8456,0.8456,0.8456,0.8455,0,0.8144,0.8165,0.8192,0.8208,0.8231,0.825,0.8272,0.8288,0.8308,0.8326,0.8339,0.8356,0.8377,0.8396,0.8409,0.8432,0.8438,0.8445,0.8449,0.8444,0.8443,0.8452,0.8451,0.8456,0.8456,0.8456,0.8456,0,0.8151,0.817,0.8199,0.8229,0.8236,0.8252,0.8277,0.8292,0.8307,0.833,0.8336,0.8359,0.8382,0.84,0.8431,0.8439,0.8463,0.8467,0.8455,0.8457,0.8465,0.8464,0.8489,0.8493,0.8481,0.8481,0.8482,0,0.8162,0.8178,0.8209,0.8222,0.8237,0.8258,0.8273,0.8291,0.8306,0.8334,0.8345,0.8369,0.839,0.8425,0.8444,0.8467,0.8471,0.8478,0.8475,0.8469,0.847,0.8469,0.847,0.8479,0.8479,0.8479,0.8479,0,0.8179,0.8187,0.8209,0.8233,0.8251,0.8271,0.8291,0.8301,0.8323,0.8339,0.8363,0.8378,0.8408,0.8431,0.8456,0.847,0.8477,0.848,0.8483,0.8479,0.8471,0.8475,0.8456,0.8479,0.8479,0.8479,0.8479,0.8479,0.8188,0.8203,0.8226,0.8249,0.8267,0.8285,0.83,0.8317,0.8337,0.8364,0.8373,0.8397,0.8418,0.8452,0.8466,0.8484,0.8485,0.849,0.8491,0.8492,0.8491,0.8468,0.8489,0.8489,0.8489,0.8489,0.8489,0,0.8205,0.8221,0.8242,0.827,0.8287,0.8293,0.8316,0.833,0.8351,0.8371,0.839,0.8417,0.8439,0.8459,0.8482,0.8492,0.8497,0.8498,0.8497,0.85,0.8489,0.8484,0.8494,0.8494,0.8494,0.8494,0.8494,0.8494,0.8216,0.8241,0.8252,0.8285,0.83,0.8324,0.8336,0.8353,0.8368,0.8397,0.8416,0.8429,0.8449,0.8473,0.8493,0.8498,0.8506,0.8506,0.8512,0.8502,0.8501,0.85,0.8495,0.8507,0.8507,0.8521,0.8521,0.8521]},{"header":{"parameterUnit":"m.s-1","parameterCategory":1,"la1":30.2991,"la2":30.254,"lo1":-89.0895,"lo2":-89.0444,"dy":0.0017,"dx":0.0017,"nx":28,"ny":28,"refTime":"2024-07-17T03:00:00:Z","depth":0,"parameterNumber":3,"parameterNumberName":"V-component_of_WINDS"},"data":[0,0,0,0,0,0,0,0,0,0,0,0,0,0,0,0,0,0,0,0,0,0,0,0,0,0,0,0,0,0,0,0,0,0,0,0,0,0,0,0,0,0,0,0,0,0,0,0,0,0,0,0,0,0,0,0,0,0,5.7294,5.7295,0,5.7379,5.738,5.7381,5.7346,5.7344,5.7342,5.734,5.742,5.7424,5.7427,0,0,0,0,0,0,0,0,0,0,0,0,0,5.7093,5.7097,5.7294,5.7295,5.7296,5.7379,5.738,5.7381,5.7346,5.7344,5.7341,5.7339,5.7418,5.7423,5.7428,0,0,0,0,0,0,0,0,0,0,0,0,0,5.7179,5.7098,5.7294,5.7289,5.7289,5.7379,5.738,5.7382,5.7347,5.7344,5.7341,5.7338,5.7417,5.7423,5.7429,5.7526,0,0,5.7447,5.7449,0,0,0,0,0,0,0,0,5.7175,5.7187,5.7289,5.7289,5.729,5.7349,5.7339,5.743,5.7348,5.7325,5.734,5.7336,5.7398,5.7405,5.7428,5.7529,5.7533,5.7447,5.7451,5.7454,5.7455,0,0,0,0,0,0,0,5.7169,5.7183,5.7327,5.729,5.7291,5.728,5.7289,5.7356,5.7377,5.7326,5.7324,5.7335,5.7398,5.7422,5.7429,5.7534,5.7447,5.7452,5.7456,5.7458,5.7717,5.772,0,0,0,0,0,0,5.7164,5.7178,5.7325,5.733,5.7224,5.7286,5.7296,5.7333,5.7376,5.738,5.7338,5.7333,5.7413,5.7422,5.7432,5.7547,5.7453,5.7459,5.7463,5.7714,5.7718,5.7721,0,0,0,0,0,0,5.7159,5.7177,5.7321,5.7254,5.7271,5.7293,5.7335,5.7336,5.736,5.7385,5.7388,5.7359,5.7411,5.7424,5.7503,5.7549,5.7462,5.7467,5.771,5.7715,5.772,5.7779,0,0,0,0,0,0,5.7154,5.7176,5.7215,5.7255,5.7275,5.7393,5.7338,5.734,5.7372,5.7367,5.7406,5.7409,5.741,5.7494,5.7509,5.7556,5.7472,5.7706,5.7712,5.7718,5.7773,5.7785,5.7796,0,0,0,0,0,5.7147,5.7227,5.7217,5.7235,5.7325,5.7396,5.7407,5.7409,5.7376,5.7414,5.7429,5.7408,5.7542,5.7502,5.7519,5.7568,5.7703,5.7711,5.7718,5.7768,5.7783,5.7796,0,0,0,0,0,0,5.7189,5.7232,5.7222,5.7318,5.7354,5.739,5.7438,5.7425,5.7469,5.7462,5.746,5.7469,5.7551,5.7568,5.7522,5.7664,5.7617,5.7628,5.765,5.7664,5.7676,5.7669,5.7477,0,0,0,0,0,5.721,5.7267,5.73,5.7382,5.7401,5.7417,5.7447,5.7446,5.7482,5.7496,5.7518,5.7552,5.7601,5.7634,5.7681,5.7776,5.7782,5.7818,5.7829,5.7839,5.7847,5.7896,5.7912,5.7746,5.7746,5.7746,0,0,5.7253,5.7283,5.7319,5.7391,5.7419,5.7475,5.7429,5.7491,5.7532,5.7505,5.7581,5.7598,5.7635,5.7722,5.7762,5.7739,5.7895,5.7848,5.7855,5.7859,5.7906,5.7921,5.7935,5.7751,5.775,5.7749,0,0,5.736,5.739,5.746,5.7489,5.7533,5.7543,5.756,5.7598,5.7609,5.7686,5.7667,5.7714,5.7801,5.7828,5.7853,5.797,5.795,5.7985,5.8044,5.8092,5.8105,5.8117,5.8156,5.8171,5.7994,5.7994,5.7994,0,5.7407,5.7494,5.7497,5.7561,5.7592,5.7573,5.7642,5.7669,5.7725,5.7746,5.772,5.7828,5.7852,5.7944,5.7972,5.7994,5.8011,5.798,5.8104,5.8115,5.8126,5.8163,5.8179,5.7998,5.7997,5.7997,5.7997,0,5.7548,5.7608,5.7659,5.7716,5.7753,5.7819,5.783,5.7867,5.7862,5.7874,5.7951,5.7979,5.8031,5.8053,5.8048,5.8144,5.8129,5.8104,5.8056,5.8145,5.8181,5.8195,5.8003,5.8002,5.8001,5.8,0,0,5.7682,5.7741,5.776,5.7785,5.7831,5.7876,5.7941,5.7994,5.8024,5.8063,5.8115,5.8189,5.8166,5.8194,5.8192,5.8235,5.8323,5.8204,5.8205,5.8223,5.8428,5.8445,5.8462,5.8312,5.8314,5.8317,5.8424,0,5.7791,5.7907,5.7912,5.8016,5.807,5.8052,5.8108,5.8141,5.8154,5.8199,5.8212,5.8264,5.8231,5.8248,5.8289,5.8304,5.8363,5.8296,5.8357,5.8359,5.8346,5.8481,5.8499,5.8599,5.8438,5.844,5.8442,0,5.7933,5.7979,5.8089,5.8128,5.815,5.8201,5.8249,5.8294,5.833,5.8336,5.8369,5.836,5.8423,5.8376,5.846,5.8414,5.844,5.845,5.8454,5.8458,5.8404,5.8486,5.8631,5.8645,5.8464,5.8462,5.8461,0,5.8018,5.8107,5.8184,5.8206,5.8253,5.8288,5.8309,5.8343,5.8374,5.8416,5.8435,5.8483,5.8509,5.8545,5.8548,5.8514,5.8633,5.8586,5.8637,5.8637,5.8661,5.8659,5.881,5.8681,5.8681,5.8681,5.868,0,5.8138,5.8205,5.8223,5.827,5.8344,5.8348,5.842,5.8438,5.8468,5.8516,5.8504,5.8548,5.8552,5.8597,5.86,5.8669,5.8681,5.8685,5.8685,5.8685,5.8685,5.87,5.8693,5.8685,5.8684,5.8683,5.8682,0,5.8244,5.8259,5.8341,5.838,5.8391,5.8444,5.8475,5.8518,5.853,5.8591,5.8606,5.8623,5.8676,5.8684,5.8745,5.8747,5.8829,5.8822,5.8817,5.8816,5.8865,5.886,5.903,5.9052,5.891,5.8912,5.8913,0,5.8318,5.837,5.8415,5.8447,5.8471,5.8523,5.8555,5.8561,5.8594,5.864,5.8677,5.8729,5.8771,5.8856,5.8872,5.8918,5.8911,5.8968,5.8918,5.8916,5.891,5.8906,5.891,5.8977,5.8978,5.8979,5.8981,0,5.8448,5.8453,5.8502,5.8553,5.8593,5.8633,5.867,5.8697,5.8707,5.8745,5.88,5.8833,5.8896,5.8947,5.8993,5.9011,5.8996,5.8997,5.901,5.901,5.9004,5.9006,5.8841,5.8992,5.8991,5.899,5.8989,5.8989,5.854,5.8584,5.8623,5.8677,5.8706,5.8741,5.8784,5.8802,5.8849,5.8902,5.8902,5.8962,5.8995,5.9056,5.9078,5.9122,5.9104,5.9124,5.9129,5.9133,5.9137,5.8999,5.9131,5.9131,5.913,5.913,5.913,0,5.8667,5.8691,5.8741,5.8795,5.8837,5.8823,5.8864,5.8899,5.8953,5.8986,5.9028,5.909,5.9139,5.916,5.9208,5.924,5.9234,5.9252,5.9248,5.9252,5.9153,5.9135,5.9255,5.9255,5.9255,5.9255,5.9255,5.9255,5.8738,5.8813,5.8822,5.891,5.8932,5.8993,5.9017,5.9049,5.9075,5.9146,5.9188,5.9202,5.923,5.928,5.9323,5.9328,5.9345,5.9365,5.9366,5.9272,5.9259,5.9247,5.9231,5.9369,5.9369,5.9462,5.9463,5.9464]}]]